カタログに戻る

THOR ABLESTAR DEB

運用中LEO
NORAD 659·DEBRIS·🇺🇸 United States

打ち上げ Jun 29, 1961 から Cape Canaveral Space Force Station

Loading…

次のパス (今後24時間)

TLE

最新Source: Space-Track

元期: Sep 13, 2026, 12:40 UTC

1 00659U 61015HL  26256.52818899  .00000223  00000-0  72930-3 0  9995
2 00659  67.1597 287.3323 0590884 234.0854 285.3845 12.66894677  2020

AllMySatでTHOR ABLESTAR DEBをリアルタイム追跡

Download on the App Store